Regional Weather Roundup
Issued by NWS Lake Charles, LA

Home | Current Version | Previous Version | Text Only | Print | Product List | Glossary On
Versions: 1 2 3 4 5 6 7 8 9 10 11 12 13 14 15 16 17 18 19 20 21 22 23 24 25 26 27 28 29 30 31 32 33 34 35 36 37 38 39 40 41 42 43 44 45 46 47 48 49 50
610
ASUS44 KLCH 171110
RWRLCH
REGIONAL WEATHER ROUNDUP
NATIONAL WEATHER SERVICE LAKE CHARLES LA
500 AM CST TUE JAN 17 2017

Note: "fair" indicates few or no clouds below 12,000 feet with no
significant weather and/or obstructions to visibility.


ACROSS SOUTHEAST TEXAS

CITY           SKY/WX    TMP DP  RH WIND       PRES   REMARKS
BEAUMONT       CLOUDY    70  68  93 S9        30.03R
BEAUMONT CITY  CLOUDY    72  70  94 S12       30.03S
ORANGE         CLOUDY   N/A N/A N/A S8        30.05S HAZE
JASPER         CLOUDY    68  66  95 NW6       30.06R
$$

ACROSS CENTRAL LOUISIANA

CITY           SKY/WX    TMP DP  RH WIND       PRES   REMARKS
LEESVILLE      CLOUDY    70  68  95 S9        30.03R
FULLERTON      CLOUDY    70  68  93 CALM      30.02R
ALEXANDRIA INT CLOUDY    68  67  96 SE8       30.04R
ESLER FIELD    CLOUDY    68  67  96 S6        30.05S
DERIDDER       CLOUDY    71  69  95 S8        30.06R
OAKDALE        CLOUDY    70  68  94 S3        30.05S
OPELOUSAS      FAIR      67  65  93 SE7       30.07S
$$

ACROSS SOUTHWEST AND SOUTH CENTRAL LOUISIANA

CITY           SKY/WX    TMP DP  RH WIND       PRES   REMARKS
SULPHUR        CLOUDY    69  69  99 S9        30.05S
LAKE CHARLES   CLOUDY    70  68  93 S9        30.04S
CHENNAULT INT  CLOUDY    69  69  98 S7        30.05S
CAMERON PHI    FOG       64  64 100 SE6       30.04S VSB 1/4
DEQUINCY       CLOUDY    70  68  95 S9        30.04S
JENNINGS       NOT AVBL
LAFAYETTE      CLOUDY    71  68  90 S8        30.07F
NEW IBERIA     CLOUDY    70  66  87 S13       30.08S
ABBEVILLE      NOT AVBL
PATTERSON      CLOUDY    66  66 100 S5        30.10R
SALT POINT     NOT AVBL
$$

SELECTED SITES ACROSS THE REGION

CITY           SKY/WX    TMP DP  RH WIND       PRES   REMARKS
HOUSTON BUSH   CLOUDY    71  69  93 S5        30.00F
HOUSTON HOBBY  CLOUDY    72  70  93 S10       29.99F
GALVESTON      CLOUDY    68  67  96 S8        30.03S FOG
COLLEGE STAT   CLOUDY    57  55  93 NE16      30.04F
CONROE         LGT RAIN  61  60  97 NW13      30.03R
HUNTSVILLE     HVY RAIN  56  54  93 VRB5      30.06R FOG
LUFKIN         CLOUDY    57  53  86 N8        30.06R
SHREVEPORT     CLOUDY    55  50  83 N8        30.07F
MONROE         CLOUDY    58  56  93 N7        30.08R
NATCHEZ MS     CLOUDY    66  63  88 S12G21    30.07S
BATON ROUGE    FOG       67  66  97 E3        30.10R VSB 3/4
N.O. INTL ARPT MOCLDY    66  65  96 SE6       30.10S
SLIDELL        CLOUDY    67  67 100 S7        30.11R
$$

MARINE REPORTS

STATION/POSITION TIME  SKY/WX   TEMP    WIND        PRES    VSBY
                                AIR SEA DIR/SP/G
                 (UTC)          (F)     (DEG/KT/KT) (MB)    (MI)
BUOY 30 S HIGH I 1050            67 62  160/  8/  8 1016.7F
WVE H/P(F/S)=  4/ 7

SEA RIM ST PARK  1100            65     150/ 11/ 12 1017.3S
PORT ARTHUR      1048                   170/  3/  5 1017.2R
SABINE PASS N    1048                   170/  9/ 12 1018.3R
TEXAS POINT      NOT AVBL
CALCASIEU PASS   1036            65 61  160/  6/  7   N/A
LK CHARLES BEACH 1036            70 59              1017.8R
MARSH ISLAND     1000            64                   N/A
FRESH WATER LOCK 1036            65 68  130/  7/ 10 1018.7F
AMERADA PASS     1036            65 52  130/  2/  3 1018.7S
$$




USA.gov is the U.S. government's official web portal to all federal, state and local government web resources and services.